Regional Weather Roundup
Issued by NWS

Home | Current Version | Previous Version | Text Only | Print | Product List | Glossary Off
Versions: 1 2 3 4 5 6 7 8 9 10 11 12 13 14 15 16 17 18 19 20 21 22 23 24 25 26 27 28 29 30 31 32 33 34 35 36 37 38 39 40 41 42 43 44 45 46 47 48 49 50

000
ASUS43 KDTX 062301
RWRMI
MICHIGAN HOURLY REGIONAL WEATHER ROUNDUP
NATIONAL WEATHER SERVICE DETROIT/PONTIAC MI
600 PM EST FRI MAR 06 2015

NOTE: "FAIR" INDICATES FEW OR NO CLOUDS BELOW 12,000 FEET WITH NO
SIGNIFICANT WEATHER AND/OR OBSTRUCTION TO VISIBILITY.

MIZ047>049-052>055-059>063-066>070-074>076-081>083-070000-
SOUTHEAST LOWER MICHIGAN

CITY           SKY/WX    TMP DP  RH WIND       PRES   REMARKS
ADRIAN         MOCLDY    21   9  59 SW15      30.26F WCI   8
ALMA           PTCLDY    21   6  51 S12G20    30.15F WCI   9
ANN ARBOR      MOCLDY    20   8  60 SW16G24   30.24F WCI   6
BAD AXE        MOCLDY    23   4  44 SW13      30.12F WCI  11
CARO           CLOUDY    24   4  43 S14       30.13F WCI  11
DETROIT CITY   CLOUDY    23   6  48 SW15G25   30.25F WCI  10
DETROIT        MOCLDY    22   8  55 S15       30.27F WCI   9
FLINT          CLOUDY    25   2  37 S14       30.18F WCI  13
GROSSE ILE     MOCLDY    21  12  68 S15       30.26F WCI   8
HILLSDALE      CLOUDY    22   7  52 S12       30.21F WCI  11
HOWELL         PTCLDY    22   1  40 S15G22    30.18F WCI   9

CITY           SKY/WX    TMP DP  RH WIND       PRES   REMARKS
JACKSON        MOCLDY    22   4  46 S15       30.20F WCI   9
LAMBERTVILLE   PTCLDY    25  10  54 S7G21     30.28F WCI  17
LANSING        MOCLDY    22   3  44 S17       30.18F WCI   8
LAPEER         FAIR      22   2  42 SW13G18   30.17F WCI  10
MASON          PTCLDY    22   4  45 S8        30.18F WCI  12
MONROE         PTCLDY    21  10  63 S14       30.26F WCI   8
MT. CLEMENS    MOCLDY    22   5  48 SW17      30.21F WCI   8
PONTIAC        MOCLDY    20   5  52 S12       30.19F WCI   8
PORT HOPE        N/A     23   3  42 SW9       30.10F WCI  13
PORT HURON     MOCLDY    19   9  63 S15       30.22F WCI   5
TRI CITIES     CLOUDY    24   4  42 S15G24    30.14F WCI  11
TROY           PTCLDY    23   6  47 SW15G22   30.25F WCI  10
SAGINAW HB     CLEAR     23   7  50 S17G24    30.14F WCI   9
$$
MIZ043>046-050>051-056>058-064>065-071>073-077>080-070000-
SOUTHWEST LOWER MICHIGAN

CITY           SKY/WX    TMP DP  RH WIND       PRES   REMARKS
BATTLE CREEK   CLOUDY    23   7  50 S17       30.19F WCI   9
BENTON HARBOR  PTCLDY    23   8  52 S22G28    30.21F WCI   8
BIG RAPIDS     CLOUDY    24   6  46 SW13      30.09S WCI  12
COLDWATER      MOCLDY    23   7  51 S6        30.22F WCI  15
FREMONT        CLOUDY    21   8  57 SW16G22   30.13F WCI   7
HOLLAND        CLOUDY    25   8  48 S13       30.17F WCI  14
GRAND RAPIDS   MOCLDY    23   6  48 SW13      30.16F WCI  11
IONIA          CLOUDY    23   6  49 SW16      30.15F WCI  10
KALAMAZOO      PTCLDY    23   8  52 S17       30.20F WCI   9
LUDINGTON      CLOUDY    26  18  73 S21G30    30.08F WCI  11
MARSHALL       MOCLDY    22   6  50 S13G20    30.20F WCI   9
MOUNT PLEASANT PTCLDY    23   6  47 S6        30.12F WCI  16
MUSKEGON       CLOUDY    22  11  62 S20G29    30.16F WCI   7
SOUTH HAVEN    MOCLDY    26   6  42 S10G20    30.19S WCI  16
$$
MIZ016>042-070000-
NORTHERN LOWER MICHIGAN

CITY           SKY/WX    TMP DP  RH WIND       PRES   REMARKS
ALPENA         CLOUDY    27   9  46 S10G21    30.00F WCI  17
BEAVER ISLAND  CLOUDY    25  20  79 SW17G24   29.96F WCI  12
BELLAIRE       CLOUDY    28  14  54 SW9       30.02S WCI  20
CADILLAC       MOCLDY    21  11  64 SW20G25   30.01F WCI   6
CHARLEVOIX     CLOUDY    27  15  61 CALM      30.02S
FRANKFORT      CLOUDY    25  20  80 S21G29    30.04F WCI  11
GAYLORD        CLOUDY    25  11  55 SW18G28   29.96F WCI  11
GRAYLING       CLOUDY    25   9  51 S15       30.01F WCI  13
HARBOR SPRINGS CLOUDY    27  14  57 SW15G22   29.98S WCI  15
HOUGHTON LAKE  MOCLDY    23   5  46 SW14      30.04S WCI  11
MANISTEE       MOCLDY    25  16  68 S15G24    30.07S WCI  12
OSCODA         CLOUDY    22   7  51 SW22G28   30.06F WCI   6
PELLSTON       CLOUDY    28  13  53 SW13G22   29.97F WCI  17
ROGERS CITY    PTCLDY    29  11  48 SW7       29.99F WCI  21
TRAVERSE CITY  CLOUDY    26  14  60 SW13G24   30.00F WCI  15
$$
MIZ007>008-015-070000-
EASTERN UPPER MICHIGAN

CITY           SKY/WX    TMP DP  RH WIND       PRES   REMARKS
KINROSS        CLOUDY    25  19  80 SW13G24   29.94F WCI  13
MACKINAC ISLAN CLOUDY    24  18  79 SW16G30   29.96F WCI  11
NEWBERRY       CLOUDY    24  18  80 SW14G22   29.91S WCI  11
S. S. MARIE    LGT SNOW  24  17  74 SW16G24   29.93F WCI  11
MUNISING         N/A     27   9  46 S12       29.90S WCI  17
$$
MIZ004>006-011>014-085-070000-
CENTRAL UPPER MICHIGAN

CITY           SKY/WX    TMP DP  RH WIND       PRES   REMARKS
MANISTIQUE     CLEAR     25  13  60 SW9G21    29.94R WCI  15
ESCANABA       CLEAR     25  16  68 S13G20    29.95S WCI  13
MENOMINEE      CLEAR     30  12  47 SW9       29.96S WCI  22
SAWYER-GWINN   CLEAR     32   9  37 W7        29.86R WCI  26
$$
MIZ001>003-009>011-084-070000-
WESTERN UPPER MICHIGAN

CITY           SKY/WX    TMP DP  RH WIND       PRES   REMARKS
IRON MOUNTAIN  CLEAR     31  10  41 W13G21    29.89S WCI  21
HOUGHTON       CLEAR     25  13  60 W15       29.88R WCI  13
COPPER HARBOR    N/A     28  12  51 MISG      29.87F
IRONWOOD       CLEAR     30  10  43 W15G21    29.91R WCI  19
$$

ABBREVIATIONS USED IN REMARKS
   TC - TEMPERATURE IN CELSIUS
  WCI - WIND CHILL INDEX
   HX - HEAT INDEX
  VSB - VISIBILITY




USA.gov is the U.S. government's official web portal to all federal, state and local government web resources and services.